AAL1140 KMIA-KORD

Flight info

Callsign AAL1140
Flight time N/A
Altitude 34000
Route HURCN4 KPASA Q118 HEVAN BONNT VEECK5
Aircraft B738/M-SDE2E3FGHIRWXY/LB1

Departure

Time 2026-04-30 13:39
Airport Miami International Airport (KMIA)

Arrival

Time N/A
Airport Chicago O'Hare International Airport (KORD)
Time Latitude Longitude Altitude Speed Heading
2026-04-30 13:05 25.79910 -80.27137 29 ft 0 kts 207°
2026-04-30 13:31 25.79941 -80.27120 29 ft 4 kts 206°
2026-04-30 13:31 25.80004 -80.27068 29 ft 4 kts 253°
2026-04-30 13:32 25.80007 -80.27056 29 ft 1 kts 265°
2026-04-30 13:34 25.80007 -80.27057 29 ft 1 kts 265°
2026-04-30 13:35 25.80013 -80.27064 29 ft 2 kts 316°
2026-04-30 13:35 25.80033 -80.27077 26 ft 0 kts 348°
2026-04-30 13:36 25.80056 -80.27078 27 ft 6 kts 10°
2026-04-30 13:36 25.80089 -80.27044 26 ft 7 kts 60°
2026-04-30 13:36 25.80164 -80.26984 28 ft 7 kts
2026-04-30 13:37 25.80195 -80.27022 29 ft 7 kts 293°
2026-04-30 13:37 25.80198 -80.27048 27 ft 0 kts 268°
2026-04-30 13:38 25.80198 -80.27062 25 ft 15 kts 268°
2026-04-30 13:38 25.80180 -80.27458 23 ft 87 kts 267°
2026-04-30 13:38 25.80061 -80.29591 280 ft 167 kts 265°
2026-04-30 13:39 25.79949 -80.32137 1629 ft 171 kts 279°
2026-04-30 13:39 25.80350 -80.35167 2179 ft 224 kts 276°
2026-04-30 13:40 25.80538 -80.36946 2527 ft 237 kts 275°
2026-04-30 13:40 25.80783 -80.38784 3038 ft 247 kts 285°
2026-04-30 13:40 25.81668 -80.40499 3459 ft 264 kts 308°
2026-04-30 13:40 25.82870 -80.42077 4154 ft 270 kts 310°
2026-04-30 13:41 25.84097 -80.43664 4924 ft 273 kts 310°
2026-04-30 13:41 25.85564 -80.44993 5669 ft 276 kts 333°
2026-04-30 13:41 25.87319 -80.45886 6466 ft 278 kts 335°
2026-04-30 13:41 25.89084 -80.46764 7204 ft 279 kts 335°
2026-04-30 13:42 25.90864 -80.47652 7964 ft 281 kts 334°
2026-04-30 13:42 25.92653 -80.48549 8771 ft 283 kts 334°
2026-04-30 13:42 25.96256 -80.50372 10345 ft 288 kts 333°
2026-04-30 13:43 25.98144 -80.51334 10600 ft 311 kts 333°
2026-04-30 13:43 26.00187 -80.52378 10771 ft 334 kts 333°
2026-04-30 13:43 26.02363 -80.53489 10919 ft 355 kts 333°
2026-04-30 13:43 26.04665 -80.54665 11056 ft 373 kts 333°
2026-04-30 13:44 26.07072 -80.55893 11258 ft 386 kts 333°
2026-04-30 13:44 26.09527 -80.57146 11692 ft 391 kts 333°
2026-04-30 13:44 26.11969 -80.58393 12265 ft 391 kts 333°
2026-04-30 13:44 26.14454 -80.59651 12862 ft 393 kts 334°
2026-04-30 13:45 26.19498 -80.62067 13978 ft 397 kts 335°
2026-04-30 13:45 26.22055 -80.63276 14466 ft 400 kts 335°
2026-04-30 13:45 26.24621 -80.64495 14960 ft 403 kts 334°
2026-04-30 13:46 26.27206 -80.65727 15467 ft 405 kts 334°
2026-04-30 13:46 26.29800 -80.66969 15973 ft 408 kts 334°
2026-04-30 13:46 26.32423 -80.68227 16453 ft 410 kts 334°
2026-04-30 13:46 26.35053 -80.69489 16917 ft 414 kts 335°
2026-04-30 13:47 26.37708 -80.70763 17375 ft 416 kts 335°
2026-04-30 13:47 26.40295 -80.72202 17802 ft 417 kts 324°
2026-04-30 13:47 26.42413 -80.74406 18240 ft 418 kts 310°
2026-04-30 13:47 26.44340 -80.76847 18625 ft 420 kts 311°
2026-04-30 13:48 26.46311 -80.79276 18957 ft 424 kts 312°
2026-04-30 13:48 26.48311 -80.81703 19284 ft 427 kts 312°
2026-04-30 13:48 26.50329 -80.84140 19621 ft 429 kts 312°
2026-04-30 13:48 26.52464 -80.86486 19945 ft 432 kts 318°
2026-04-30 13:49 26.54775 -80.88644 20267 ft 435 kts 321°
2026-04-30 13:49 26.57160 -80.90738 20577 ft 437 kts 321°
2026-04-30 13:49 26.59565 -80.92824 20977 ft 437 kts 321°
2026-04-30 13:49 26.61954 -80.94916 21338 ft 437 kts 321°
2026-04-30 13:50 26.64349 -80.97043 21576 ft 441 kts 321°
2026-04-30 13:50 26.69159 -81.01387 22059 ft 446 kts 321°
2026-04-30 13:50 26.71569 -81.03582 22313 ft 448 kts 321°
2026-04-30 13:51 26.73994 -81.05795 22544 ft 451 kts 321°
2026-04-30 13:51 26.76431 -81.08021 22765 ft 453 kts 321°
2026-04-30 13:51 26.78874 -81.10253 22982 ft 455 kts 321°
2026-04-30 13:51 26.81306 -81.12475 23188 ft 457 kts 321°
2026-04-30 13:52 26.83777 -81.14734 23397 ft 459 kts 321°
2026-04-30 13:52 26.86255 -81.17000 23586 ft 461 kts 321°
2026-04-30 13:52 26.88743 -81.19276 23756 ft 462 kts 321°
2026-04-30 13:52 26.91227 -81.21550 24089 ft 459 kts 320°
2026-04-30 13:53 26.93679 -81.23796 24478 ft 455 kts 320°
2026-04-30 13:53 26.96146 -81.26058 24550 ft 459 kts 320°
2026-04-30 13:53 26.98636 -81.28342 24612 ft 463 kts 320°
2026-04-30 13:53 27.00288 -81.29857 24649 ft 465 kts 320°
2026-04-30 13:54 27.03651 -81.32944 24800 ft 467 kts 320°
2026-04-30 13:54 27.06282 -81.35086 25096 ft 465 kts 327°
2026-04-30 13:54 27.09028 -81.36816 25893 ft 452 kts 330°
2026-04-30 13:54 27.11802 -81.38484 26705 ft 440 kts 330°
2026-04-30 13:55 27.14427 -81.40069 27543 ft 429 kts 329°
2026-04-30 13:55 27.17012 -81.41661 28450 ft 418 kts 329°
2026-04-30 13:55 27.19513 -81.43228 29371 ft 408 kts 329°
2026-04-30 13:55 27.21980 -81.44792 29971 ft 407 kts 328°
2026-04-30 13:56 27.23644 -81.45852 30307 ft 406 kts 328°
2026-04-30 13:56 27.26888 -81.47923 30859 ft 406 kts 328°
2026-04-30 13:56 27.29351 -81.49494 31208 ft 408 kts 328°
2026-04-30 13:56 27.30984 -81.50536 31431 ft 409 kts 328°
2026-04-30 13:57 27.34313 -81.52627 31896 ft 411 kts 331°
2026-04-30 13:57 27.36028 -81.53539 32128 ft 412 kts 334°
2026-04-30 13:57 27.38682 -81.54778 32480 ft 414 kts 336°
2026-04-30 13:57 27.41369 -81.55951 32844 ft 414 kts 336°
2026-04-30 13:58 27.44065 -81.57114 33155 ft 415 kts 336°
2026-04-30 13:58 27.49458 -81.59487 33760 ft 417 kts 336°
2026-04-30 13:58 27.52129 -81.60688 34011 ft 419 kts 335°
2026-04-30 13:59 27.54886 -81.61939 33984 ft 424 kts 335°
2026-04-30 13:59 27.60337 -81.64430 33978 ft 420 kts 335°
2026-04-30 14:00 27.65710 -81.66891 34000 ft 415 kts 335°
2026-04-30 14:00 27.73715 -81.70566 34007 ft 416 kts 336°
2026-04-30 14:01 27.79079 -81.73029 34005 ft 416 kts 336°
2026-04-30 14:01 27.84439 -81.75493 34021 ft 416 kts 335°
2026-04-30 14:02 27.89779 -81.77950 34010 ft 413 kts 335°
2026-04-30 14:02 27.95083 -81.80393 34003 ft 410 kts 335°
2026-04-30 14:03 28.00354 -81.82825 34002 ft 407 kts 335°
2026-04-30 14:03 28.05588 -81.85242 34008 ft 405 kts 335°
2026-04-30 14:04 28.10803 -81.87653 34006 ft 405 kts 335°
2026-04-30 14:04 28.16014 -81.90064 33999 ft 405 kts 334°
2026-04-30 14:05 28.20841 -81.93148 33998 ft 400 kts 323°
2026-04-30 14:05 28.25368 -81.96842 33991 ft 401 kts 322°
2026-04-30 14:06 28.32197 -82.02336 33991 ft 401 kts 323°
2026-04-30 14:07 28.39074 -82.07789 33990 ft 402 kts 323°
2026-04-30 14:08 28.45959 -82.13255 33998 ft 403 kts 323°
2026-04-30 14:08 28.52865 -82.18746 33980 ft 404 kts 323°
2026-04-30 14:09 28.57471 -82.22415 33976 ft 404 kts 323°
2026-04-30 14:10 28.64343 -82.27896 33983 ft 404 kts 323°
2026-04-30 14:10 28.68938 -82.31566 33983 ft 403 kts 323°
2026-04-30 14:11 28.73535 -82.35242 33979 ft 403 kts 323°
2026-04-30 14:11 28.78125 -82.38915 33989 ft 403 kts 321°
2026-04-30 14:12 28.82714 -82.42594 33978 ft 403 kts 321°
2026-04-30 14:12 28.87292 -82.46267 33981 ft 402 kts 321°
2026-04-30 14:13 28.91864 -82.49940 33981 ft 402 kts 321°
2026-04-30 14:13 28.96437 -82.53616 33973 ft 401 kts 321°
2026-04-30 14:14 29.01002 -82.57291 33970 ft 401 kts 321°
2026-04-30 14:14 29.05535 -82.60944 33988 ft 401 kts 321°
2026-04-30 14:15 29.10092 -82.64620 33978 ft 401 kts 321°
2026-04-30 14:15 29.14651 -82.68302 33977 ft 401 kts 321°
2026-04-30 14:16 29.19207 -82.71986 33971 ft 400 kts 321°
2026-04-30 14:16 29.23754 -82.75666 33970 ft 400 kts 321°
2026-04-30 14:17 29.28298 -82.79348 33975 ft 400 kts 322°
2026-04-30 14:17 29.32842 -82.83034 33962 ft 400 kts 321°
2026-04-30 14:18 29.37374 -82.86716 33967 ft 399 kts 321°
2026-04-30 14:18 29.44129 -82.92211 33966 ft 397 kts 321°
2026-04-30 14:19 29.50875 -82.97664 33959 ft 396 kts 324°
2026-04-30 14:20 29.55881 -83.00399 33965 ft 400 kts 333°
2026-04-30 14:20 29.63612 -83.04011 33967 ft 400 kts 333°
2026-04-30 14:21 29.68755 -83.06443 33970 ft 400 kts 332°
2026-04-30 14:22 29.76472 -83.10115 33959 ft 400 kts 332°
2026-04-30 14:22 29.84191 -83.13796 33962 ft 400 kts 332°
2026-04-30 14:23 29.94457 -83.18701 33999 ft 401 kts 332°
2026-04-30 14:24 30.02178 -83.22398 33959 ft 401 kts 332°
2026-04-30 14:25 30.12471 -83.27336 33944 ft 400 kts 332°
2026-04-30 14:26 30.20169 -83.31036 33952 ft 399 kts 332°
2026-04-30 14:27 30.27842 -83.34732 33950 ft 397 kts 332°
2026-04-30 14:27 30.32899 -83.37176 33942 ft 395 kts 332°
2026-04-30 14:28 30.40492 -83.40850 33943 ft 392 kts 332°
2026-04-30 14:28 30.45527 -83.43290 33941 ft 391 kts 332°
2026-04-30 14:29 30.54711 -83.47749 33946 ft 391 kts 332°
2026-04-30 14:31 30.68065 -83.54248 33928 ft 393 kts 332°
2026-04-30 14:31 30.75631 -83.57939 33947 ft 393 kts 332°
2026-04-30 14:32 30.83193 -83.61632 33969 ft 389 kts 332°
2026-04-30 14:33 30.88133 -83.64045 33954 ft 383 kts 332°
2026-04-30 14:33 30.95516 -83.67667 33948 ft 384 kts 332°
2026-04-30 14:34 31.00447 -83.70087 33952 ft 385 kts 332°
2026-04-30 14:34 31.05349 -83.72496 33962 ft 385 kts 332°
2026-04-30 14:35 31.12773 -83.76147 33965 ft 386 kts 331°
2026-04-30 14:36 31.17663 -83.78553 33949 ft 377 kts 331°
2026-04-30 14:36 31.22497 -83.80938 33959 ft 378 kts 331°
2026-04-30 14:37 31.27334 -83.83328 33939 ft 377 kts 331°
2026-04-30 14:37 31.32163 -83.85715 33945 ft 376 kts 331°
2026-04-30 14:38 31.36988 -83.88103 33956 ft 377 kts 331°
2026-04-30 14:38 31.41806 -83.90492 33941 ft 379 kts 330°
2026-04-30 14:39 31.46576 -83.92852 33952 ft 368 kts 330°
2026-04-30 14:39 31.51305 -83.95180 33956 ft 371 kts 332°
2026-04-30 14:40 31.56399 -83.96671 33966 ft 382 kts 341°
2026-04-30 14:40 31.59015 -83.97239 33957 ft 383 kts 341°
2026-04-30 14:40 31.64264 -83.98376 33946 ft 384 kts 341°
2026-04-30 14:41 31.69521 -83.99528 33949 ft 385 kts 340°
2026-04-30 14:41 31.74792 -84.00697 33944 ft 385 kts 340°
2026-04-30 14:42 31.80055 -84.01869 33941 ft 385 kts 340°
2026-04-30 14:42 31.85280 -84.03034 33931 ft 384 kts 340°
2026-04-30 14:43 31.90520 -84.04205 33923 ft 383 kts 340°
2026-04-30 14:43 31.95750 -84.05375 33930 ft 383 kts 339°
2026-04-30 14:44 32.00981 -84.06548 33910 ft 383 kts 339°
2026-04-30 14:44 32.06225 -84.07723 33917 ft 384 kts 339°
2026-04-30 14:45 32.10591 -84.08703 33914 ft 384 kts 339°
2026-04-30 14:45 32.16741 -84.10084 33911 ft 385 kts 339°
2026-04-30 14:46 32.21119 -84.11069 33925 ft 386 kts 339°
2026-04-30 14:46 32.26399 -84.12259 33926 ft 387 kts 339°
2026-04-30 14:47 32.31706 -84.13456 33920 ft 388 kts 339°
2026-04-30 14:47 32.37024 -84.14656 33932 ft 390 kts 339°
2026-04-30 14:48 32.42355 -84.15860 33926 ft 390 kts 339°
2026-04-30 14:48 32.47659 -84.17060 33930 ft 390 kts 339°
2026-04-30 14:49 32.52999 -84.18268 33944 ft 391 kts 338°
2026-04-30 14:49 32.58359 -84.19485 33932 ft 391 kts 338°
2026-04-30 14:50 32.66385 -84.21308 33938 ft 391 kts 338°
2026-04-30 14:51 32.74405 -84.23132 33959 ft 391 kts 338°
2026-04-30 14:52 32.82426 -84.24962 33967 ft 392 kts 337°
2026-04-30 14:52 32.90483 -84.26804 33975 ft 394 kts 338°
2026-04-30 14:53 32.98531 -84.28645 33973 ft 395 kts 338°
2026-04-30 14:54 33.09283 -84.31104 33962 ft 393 kts 338°
2026-04-30 14:55 33.17354 -84.32965 33981 ft 394 kts 338°
2026-04-30 14:56 33.28126 -84.35446 34005 ft 394 kts 338°
2026-04-30 14:57 33.36250 -84.37324 34395 ft 397 kts 338°
2026-04-30 14:57 33.41637 -84.38564 35170 ft 392 kts 338°
2026-04-30 14:58 33.46959 -84.39793 35925 ft 387 kts 338°
2026-04-30 14:58 33.55017 -84.41674 35994 ft 402 kts 338°
2026-04-30 15:00 33.68820 -84.44811 35980 ft 404 kts 338°
2026-04-30 15:01 33.79870 -84.47212 35981 ft 402 kts 338°
2026-04-30 15:01 33.88094 -84.49017 35966 ft 402 kts 338°
2026-04-30 15:02 33.93605 -84.50230 35951 ft 402 kts 338°
2026-04-30 15:03 34.07478 -84.52847 35993 ft 410 kts 342°
2026-04-30 15:04 34.21673 -84.54257 35985 ft 408 kts 341°
2026-04-30 15:06 34.35746 -84.55727 36031 ft 406 kts 341°
2026-04-30 15:07 34.47003 -84.56913 35962 ft 405 kts 340°
2026-04-30 15:08 34.58228 -84.58098 35969 ft 404 kts 340°
2026-04-30 15:09 34.72239 -84.59579 35983 ft 403 kts 340°
2026-04-30 15:10 34.83387 -84.60765 36017 ft 403 kts 340°
2026-04-30 15:11 35.00086 -84.62547 35984 ft 402 kts 340°
2026-04-30 15:13 35.13943 -84.64017 36061 ft 398 kts 339°
2026-04-30 15:14 35.33486 -84.66135 36050 ft 406 kts 340°
2026-04-30 15:17 35.58911 -84.68877 36029 ft 408 kts 340°
2026-04-30 15:19 35.81654 -84.71350 36033 ft 411 kts 340°